This demonstration page uses our WeatherBlox Daily Observations layout. Learn more.

Left ArrowRight Arrow

Hourly Observations for August 22, 2020

Temp ( °F °C ) Dew Point ( °F °C ) Humidity (%) Winds ( mph kmh ) Pressure ( in mb ) Visibility ( mi km ) Precip ( " mm )
12:51 am 00:51 Clear 87 30.6 60 15.6 40 40 WNW 13 20 29.69 1006 10 16.0934 0 0
1:51 am 01:51 Clear 84 28.9 61 16.1 46 46 W 12 19 29.72 1006 10 16.0934 0 0
2:51 am 02:51 Clear 84 28.9 61 16.1 46 46 WNW 7 11 29.75 1007 10 16.0934 0 0
3:51 am 03:51 Clear 85 29.4 61 16.1 45 45 NW 12 19 29.77 1008 10 16.0934 0 0
4:51 am 04:51 Clear 84 28.9 61 16.1 46 46 NNW 13 20 29.77 1008 10 16.0934 0 0
5:51 am 05:51 Sunny 83 28.3 61 16.1 48 48 NW 13 20 29.78 1009 10 16.0934 0 0
6:51 am 06:51 Sunny 85 29.4 63 17.2 48 48 NW 18 30 29.8 1009 10 16.0934 0 0
7:51 am 07:51 Sunny 86 30 64 17.8 48 48 WNW 18 30 29.8 1009 10 16.0934 0 0
8:51 am 08:51 Sunny 87 30.6 65 18.3 48 48 NW 17 28 29.81 1009 10 16.0934 0 0
9:51 am 09:51 Sunny 90 32.2 65 18.3 44 44 WNW 15 24 29.8 1009 10 16.0934 0 0
10:51 am 10:51 Sunny 93 33.9 64 17.8 38 38 W 17 28 29.79 1009 10 16.0934 0 0
11:51 am 11:51 Sunny 96 35.6 64 17.8 35 35 WNW 15 24 29.75 1008 10 16.0934 0 0
12:51 pm 12:51 Sunny 99 37.2 61 16.1 29 29 WNW 16 26 29.72 1007 10 16.0934 0 0
1:51 pm 13:51 Sunny 101 38.3 60 15.6 26 26 W 15 24 29.69 1005 10 16.0934 0 0
2:51 pm 14:51 Sunny 103 39.4 58 14.4 23 23 WNW 15 24 29.65 1004 10 16.0934 0 0
3:51 pm 15:51 Sunny 104 40 56 13.3 20 20 W 13 20 29.62 1003 10 16.0934 0 0
4:51 pm 16:51 Sunny 103 39.4 51 10.6 18 18 WNW 13 20 29.63 1003 10 16.0934 0 0
5:40 pm 17:40 Partly Cloudy with Thunderstorms 100 37.8 54 12.2 21 21 NNE 23 37 29.54 1000 10 16.0934 0 0
5:51 pm 17:51 Mostly Cloudy 97 36.1 51 10.6 21 21 NE 31 50 29.66 1005 10 16.0934 0 0
6:51 pm 18:51 Sunny 93 33.9 49 9.4 22 22 NE 22 35 29.68 1005 10 16.0934 0 0
7:06 pm 19:06 Clear with Nearby Thunderstorms 93 33.9 48 8.9 21 21 VRB 5 7 29.63 1003 10 16.0934 0 0
7:26 pm 19:26 Partly Cloudy with Thunderstorms 87 30.6 57 13.9 36 36 WSW 20 31 29.67 1005 10 16.0934 0 0
7:41 pm 19:41 Mostly Clear with Nearby Thunderstorms 86 30 58 14.4 39 39 SW 15 24 29.67 1005 10 16.0934 0 0
7:51 pm 19:51 Clear with Nearby Thunderstorms 86 30 55 12.8 35 35 SW 18 30 29.74 1007 10 16.0934 0 0
8:10 pm 20:10 Mostly Clear 85 29.4 57 13.9 39 39 WNW 9 15 29.7 1006 10 16.0934 0 0
8:51 pm 20:51 Partly Cloudy 87 30.6 55 12.8 34 34 NNW 12 19 29.73 1007 10 16.0934 0 0
9:51 pm 21:51 Clear 84 28.9 59 15 43 43 W 12 19 29.77 1008 10 16.0934 0 0
10:51 pm 22:51 Clear 84 28.9 57 13.9 40 40 SE 3 6 29.78 1008 10 16.0934 0 0
11:51 pm 23:51 Clear 84 28.9 57 13.9 40 40 Calm 29.77 1008 10 16.0934 0 0

Powered by AerisWeather